, MO

(GMT )
Kansas City

Weather History for KMKC - August, 2013

Change the Weather History Date:

Friday, August 23, 2013

  Actual Average Record
Temperature  
Mean Temperature 83 °F -  
Max Temperature 93 °F 86 °F 99 °F (2014)
Min Temperature 73 °F 68 °F 62 °F (2015)
Cooling Degree Days 18    
Growing Degree Days 33 (Base 50)    
Moisture  
Dew Point 67 °F    
Average Humidity 60    
Maximum Humidity 87    
Minimum Humidity 34    
Precipitation  
Precipitation 0.00 in - - ()
Sea Level Pressure  
Sea Level Pressure 30.03 in    
Wind  
Wind Speed 3 mph (SSE)    
Max Wind Speed 13 mph    
Max Gust Speed 16 mph    
Visibility 10 miles    
Events      
Averages and records for this station are not official NWS values.
T = Trace of Precipitation, MM = Missing Value Source: NWS Daily Summary

Daily Weather History Graph

Daily Weather History Graph

Search for Another Location

Airport or City:

Trip Planner

Search our weather history database for the weather conditions in past years. The results will help you decide how hot, cold, wet, or windy it might be!

Date:

Astronomy

Aug. 23, 2013 Rise Set
Actual Time 6:39 AM CDT 8:01 PM CDT
Civil Twilight 6:11 AM CDT 8:29 PM CDT
Nautical Twilight 5:37 AM CDT 9:03 PM CDT
Astronomical Twilight 5:02 AM CDT 9:38 PM CDT
Moon 9:23 PM CDT (8/23) 9:33 AM CDT (8/23)
Length of Visible Light 14h 18m
Length of Day
13h 22m
Waning Gibbous, 91% of the Moon is Illuminated
Aug 23
Waning Gibbous
Aug 28
Last Quarter
Sep 5
New
Sep 12
First Quarter
Sep 19
Full

Hourly Weather History & Observations

Time (CDT) Temp. Heat Index Dew Point Humidity Pressure Visibility Wind Dir Wind Speed Gust Speed Precip Events Conditions
12:54 AM 79.0 °F - 70.0 °F 74% 30.03 in 10.0 mi Calm Calm - N/A   Clear
1:54 AM 77.0 °F - 70.0 °F 79% 30.03 in 10.0 mi Calm Calm - N/A   Clear
2:54 AM 75.9 °F - 71.1 °F 85% 30.04 in 10.0 mi Calm Calm - N/A   Clear
3:54 AM 75.9 °F - 70.0 °F 82% 30.04 in 10.0 mi Calm Calm - N/A   Clear
4:54 AM 75.0 °F - 70.0 °F 84% 30.04 in 10.0 mi Calm Calm - N/A   Clear
5:54 AM 73.9 °F - 70.0 °F 87% 30.05 in 9.0 mi NNW 3.5 mph - N/A   Clear
6:54 AM 73.9 °F - 70.0 °F 87% 30.05 in 7.0 mi Calm Calm - N/A   Clear
7:54 AM 75.9 °F - 71.1 °F 85% 30.06 in 7.0 mi Calm Calm - N/A   Clear
8:54 AM 80.1 °F 83.2 °F 70.0 °F 71% 30.06 in 7.0 mi Calm Calm - N/A   Clear
9:54 AM 84.9 °F 90.1 °F 71.1 °F 63% 30.06 in 9.0 mi Calm Calm - N/A   Clear
10:54 AM 88.0 °F 92.9 °F 70.0 °F 55% 30.06 in 10.0 mi Calm Calm - N/A   Clear
11:54 AM 89.1 °F 92.9 °F 68.0 °F 50% 30.05 in 10.0 mi South 5.8 mph - N/A   Clear
12:54 PM 89.1 °F 91.0 °F 64.9 °F 45% 30.04 in 10.0 mi SSE 6.9 mph - N/A   Clear
1:54 PM 91.9 °F 91.8 °F 61.0 °F 35% 30.03 in 10.0 mi SE 8.1 mph - N/A   Clear
2:54 PM 93.0 °F 93.0 °F 61.0 °F 34% 30.00 in 10.0 mi SE 12.7 mph - N/A   Clear
3:54 PM 91.9 °F 92.9 °F 63.0 °F 38% 29.99 in 10.0 mi East 9.2 mph - N/A   Clear
4:54 PM 91.9 °F 92.9 °F 63.0 °F 38% 29.99 in 10.0 mi South 6.9 mph - N/A   Clear
5:54 PM 91.0 °F 92.6 °F 64.0 °F 41% 29.99 in 10.0 mi SSE 10.4 mph 16.1 mph N/A   Clear
6:54 PM 88.0 °F 89.6 °F 64.9 °F 46% 29.99 in 10.0 mi SE 9.2 mph - N/A   Clear
7:54 PM 87.1 °F 88.9 °F 64.9 °F 48% 29.99 in 10.0 mi SE 6.9 mph - N/A   Clear
8:54 PM 84.9 °F 86.6 °F 64.9 °F 51% 30.00 in 10.0 mi SSE 4.6 mph - N/A   Clear
9:54 PM 84.9 °F 86.1 °F 64.0 °F 49% 30.01 in 10.0 mi SSE 6.9 mph - N/A   Clear
10:54 PM 82.0 °F 84.1 °F 66.0 °F 58% 30.01 in 10.0 mi SSE 4.6 mph - N/A   Clear
11:54 PM 82.9 °F 85.0 °F 66.0 °F 56% 30.01 in 10.0 mi SE 6.9 mph - N/A   Clear